Regional Weather Roundup
Issued by NWS

Home | Current Version | Previous Version | Graphics & Text | Print | Product List | Glossary On
Versions: 1 2 3 4 5 6 7 8 9 10 11 12 13 14 15 16 17 18 19 20 21 22 23 24 25 26 27 28 29 30 31 32 33 34 35 36 37 38 39 40 41 42 43 44 45 46 47 48 49 50
327
ASUS43 KLSX 240307
RWRMO

WEATHER SUMMARY FOR MISSOURI
NATIONAL WEATHER SERVICE SPRINGFIELD MO
1000 PM CDT MON OCT 23 2017

NOTE: "FAIR" INDICATES FEW OR NO CLOUDS BELOW 12,000 FEET WITH NO
       SIGNIFICANT WEATHER AND/OR OBSTRUCTIONS TO VISIBILITY.
       CURRENT SKY AND/OR WEATHER CONDITIONS ARE NOT AVAILABLE FOR
       CHILLICOTHE AND FARMINGTON.

MOZ001>031-035>038-043-044-053-054-240400-
...NORTHERN AND WESTERN MISSOURI...

CITY           SKY/WX    TMP DP  RH WIND       PRES   REMARKS
KANSAS CTY INT CLEAR     53  31  42 NW13G23   30.07R
KANSAS C DTWN  PTCLDY    57  32  38 NW14G23   30.07R
LEE`S SUMMIT   LGT RAIN  55  32  41 NW20G32   30.08R
ST JOSEPH      LGT RAIN  52  33  48 NW9       30.07S
CHILLICOTHE      N/A     53  33  46 NW8G17    30.02R
KIRKSVILLE     CLOUDY    52  34  50 NW21G33   29.94R

$$
MOZ066>068-077>081-088>096-101>105-240400-
...SOUTHWEST MISSOURI...

CITY           SKY/WX    TMP DP  RH WIND       PRES   REMARKS
SPRINGFIELD    CLEAR     55  37  50 NW9       30.05R
JOPLIN         CLEAR     53  38  56 W9        30.12R
BRANSON        CLEAR     57  36  44 W7G18     30.07R

$$
MOZ032>034-039>042-045>050-055>058-069>072-240400-
...CENTRAL MISSOURI...

CITY           SKY/WX    TMP DP  RH WIND       PRES   REMARKS
COLUMBIA       PTCLDY    56  36  47 NW21G30   29.95R
JEFFERSON CITY MOCLDY    59  33  37 NW9G22    29.95R
ROLLA          MOCLDY    54  40  59 W14       29.96R
SEDALIA        CLEAR     56  37  49 NW15G25   30.01R
WHITEMAN AFB   PTCLDY    55  33  43 NW14      29.99R
WARRENSBURG    CLEAR     55  32  41 NW15G29   30.05R
OSAGE BEACH    PTCLDY    56  37  49 VRB7      29.99R

$$
MOZ051-052-059>065-240400-
...EAST CENTRAL MISSOURI...

CITY           SKY/WX    TMP DP  RH WIND       PRES   REMARKS
ST LOUIS INTL  MOCLDY    57  44  62 NW16G30   29.86S
SPIRIT OF STL  MOCLDY    59  42  53 NW18G25   29.87R
ST CHARLES     MOCLDY    55  47  74 W12       29.85R

$$
MOZ072>076-082>087-097>100-106>115-240400-
...SOUTH CENTRAL AND SOUTHEAST MISSOURI...

CITY           SKY/WX    TMP DP  RH WIND       PRES   REMARKS
CAPE GIRARDEAU CLOUDY    60  46  59 NW14G20   29.87R
FARMINGTON     CLOUDY    54  44  69 NW8       29.90R
POPLAR BLUFF   CLEAR     62  41  46 NW13      29.91R
WEST PLAINS    PTCLDY    56  40  55 W8        29.99R

$$



USA.gov is the U.S. government's official web portal to all federal, state and local government web resources and services.